Date,TemperatureHighF,TemperatureAvgF,TemperatureLowF,DewpointHighF,DewpointAvgF,DewpointLowF,HumidityHigh,HumidityAvg,HumidityLow,PressureMaxIn,PressureMinIn,WindSpeedMaxMPH,WindSpeedAvgMPH,GustSpeedMaxMPH,PrecipitationSumIn
2013-1-1,46,40,34,44,36,28,93,85,78,30.36,30.09,15,8,15,0.00
2013-1-2,39,34,32,30,28,27,87,78,67,30.42,30.33,13,4,13,0.00
2013-1-3,41,33,32,32,29,28,92,86,73,30.54,30.41,12,3,12,0.00
2013-1-7,54,48,32,38,34,29,90,60,49,30.41,30.15,14,3,14,0.00
2013-1-8,47,46,43,45,42,34,94,86,67,30.16,30.01,10,3,10,1.24
2013-1-9,56,53,47,54,51,45,94,94,94,30.17,29.95,22,7,22,1.18
2013-1-10,57,53,48,54,48,44,95,84,70,30.03,29.96,12,3,12,0.04
2013-1-11,70,59,48,62,51,43,91,76,53,30.00,29.81,14,4,14,0.00
2013-1-12,66,55,36,64,52,30,94,90,77,29.99,29.71,24,7,24,0.23
2013-1-13,41,35,32,30,25,20,82,67,54,30.35,29.99,22,11,22,0.00
2013-1-14,43,36,32,28,24,20,72,62,51,30.42,30.27,12,5,12,0.00
2013-1-15,36,34,32,31,27,21,91,77,58,30.31,30.22,13,6,13,0.06
2013-1-16,47,37,32,27,24,20,81,62,41,30.38,30.23,12,3,12,0.05
2013-1-17,57,44,33,38,31,24,81,62,42,30.56,30.31,16,4,16,0.00
2013-1-18,61,45,32,39,34,28,91,67,43,30.57,30.32,12,2,12,0.00
2013-1-19,63,51,37,47,41,34,91,71,54,30.32,30.19,12,2,12,0.00
2013-1-20,68,50,34,48,40,32,92,71,39,30.27,30.11,10,2,10,0.00
2013-1-21,55,45,38,41,34,29,91,66,48,30.36,30.16,13,4,13,0.00
2013-1-22,65,50,36,49,40,27,85,67,56,30.38,30.23,9,2,9,0.03
2013-1-23,71,62,51,57,53,46,86,74,60,30.33,30.16,12,4,12,0.03
2013-1-24,78,65,53,61,56,49,91,74,55,30.22,30.05,10,3,10,0.00
2013-1-25,56,50,48,49,44,40,91,79,71,30.25,30.06,12,4,12,0.00
2013-1-26,51,48,45,48,45,39,94,88,72,30.27,30.15,8,3,8,0.00
2013-1-27,74,62,49,63,57,47,95,85,63,30.15,29.95,14,5,14,0.01
2013-1-28,77,71,66,67,64,63,90,79,66,30.02,29.86,15,6,15,0.00
2013-1-29,78,66,54,66,59,33,91,78,48,29.87,29.46,25,9,25,0.22
2013-1-30,54,46,33,36,29,22,75,53,34,30.21,29.71,33,11,33,0.00
2013-1-31,67,51,32,34,28,22,79,44,24,30.35,30.13,20,4,20,0.00
2013-2-1,58,46,32,39,29,19,67,53,43,30.45,30.22,15,4,15,0.00
2013-2-2,65,55,42,47,41,34,81,60,36,30.37,30.18,15,4,15,0.00
2013-2-3,69,53,35,42,34,31,89,54,26,30.38,30.02,13,2,13,0.00
2013-2-4,70,60,53,58,50,33,90,70,42,30.02,29.82,10,4,10,0.02
2013-2-5,68,61,56,62,57,54,94,88,73,30.05,29.90,10,3,10,0.01
2013-2-6,73,62,56,63,57,53,95,84,57,30.06,29.89,16,4,16,0.02
2013-2-7,79,64,55,61,54,45,92,73,35,30.13,29.82,25,9,25,0.00
2013-2-8,62,53,44,47,36,27,76,55,27,30.29,30.13,17,5,17,0.00
2013-2-9,59,49,44,57,45,35,94,87,71,30.19,29.78,18,7,18,0.00
2013-2-10,66,58,46,64,42,29,95,61,27,30.06,29.69,29,6,29,0.49
2013-2-11,53,50,46,41,36,31,79,59,48,30.21,30.03,13,5,13,0.00
2013-2-12,49,46,41,47,44,37,93,89,79,30.09,29.89,20,5,20,0.30
2013-2-13,55,45,38,40,36,34,86,72,47,30.22,30.08,16,5,16,0.00
2013-2-14,67,53,36,45,38,32,89,60,29,30.16,30.04,12,2,12,0.00
2013-2-15,52,46,40,40,30,21,72,53,34,30.45,30.12,16,7,16,0.00
2013-2-16,54,50,39,31,29,24,62,44,37,30.47,30.24,12,3,12,0.00
2013-2-17,70,66,56,39,37,34,43,35,28,30.14,29.94,18,6,18,0.00
2013-2-18,77,64,52,58,43,32,82,49,31,30.16,29.77,24,12,24,0.00
2013-2-19,64,52,39,39,30,26,69,44,29,30.37,30.17,15,4,15,0.00
2013-2-20,51,44,40,40,37,33,88,77,51,30.21,29.83,16,7,16,0.16
2013-2-21,67,53,42,51,40,31,93,67,27,29.98,29.64,26,9,26,0.10
2013-2-22,47,40,32,38,28,23,79,64,49,30.21,29.96,16,6,16,0.00
2013-2-23,53,42,32,32,29,25,83,61,44,30.15,29.98,14,2,14,0.00
2013-2-24,68,52,32,46,38,27,84,61,38,29.99,29.64,16,6,16,0.00
2013-2-25,59,52,40,52,41,31,86,68,40,29.73,29.51,30,11,30,0.03
2013-2-26,57,45,38,36,33,30,77,62,42,29.95,29.73,28,12,28,0.00
2013-2-27,55,45,35,34,29,22,83,56,30,30.29,29.94,23,9,23,0.00
2013-2-28,57,46,36,31,28,25,76,52,33,30.36,30.23,20,9,20,0.00
2013-3-1,54,43,32,33,30,25,83,60,42,30.36,30.25,13,5,13,0.00
2013-3-2,54,41,32,30,26,22,75,56,36,30.50,30.30,18,7,18,0.00
2013-3-3,70,54,36,44,33,24,69,46,31,30.30,29.84,16,6,16,0.00
2013-3-4,86,68,55,52,46,41,69,50,21,29.83,29.61,20,7,20,0.00
2013-3-5,65,50,42,46,28,21,69,44,27,30.43,29.79,30,13,30,0.00
2013-3-6,60,48,32,28,24,22,68,41,24,30.52,30.26,12,3,12,0.00
2013-3-7,70,54,38,40,32,22,71,44,24,30.30,30.14,15,4,15,0.07
2013-3-8,60,55,52,55,48,40,86,77,56,30.23,30.03,15,6,15,0.00
2013-3-9,68,64,59,64,60,54,93,88,82,30.03,29.67,17,7,17,0.25
2013-3-10,62,51,38,59,40,31,93,67,51,30.15,29.75,25,10,25,0.11
2013-3-11,58,39,32,32,28,20,89,68,29,30.19,30.06,17,5,17,0.00
2013-3-12,66,60,45,35,33,29,60,36,29,30.36,30.20,15,5,15,0.00
2013-3-13,68,54,37,44,37,32,84,57,34,30.49,30.36,12,2,12,0.05
2013-3-14,76,60,42,50,43,36,78,56,38,30.40,30.20,16,3,16,0.00
2013-3-15,80,67,56,56,50,45,82,57,34,30.20,29.91,13,5,13,0.02
2013-3-16,80,69,56,61,55,49,86,63,47,29.92,29.71,18,8,18,0.00
2013-3-17,74,67,59,60,57,50,86,71,54,29.82,29.69,17,5,17,0.00
2013-3-18,68,63,56,62,50,41,92,64,48,30.04,29.67,16,6,16,0.00
2013-3-19,68,58,47,47,40,36,73,52,40,30.16,29.99,16,5,16,0.00
2013-3-20,67,58,46,40,35,30,68,43,27,30.34,30.08,17,4,17,0.00
2013-3-21,69,60,49,58,45,32,81,58,46,30.08,29.60,20,8,20,0.00
2013-3-22,65,54,46,60,50,43,90,84,68,29.90,29.59,15,6,15,0.00
2013-3-23,55,50,44,51,46,42,94,89,82,29.99,29.72,20,4,20,0.42
2013-3-24,51,45,38,47,30,22,91,59,39,30.24,29.87,27,14,27,0.16
2013-3-25,52,43,32,26,22,20,71,45,28,30.47,30.24,20,7,20,0.00
2013-3-26,58,44,32,28,25,20,81,50,30,30.58,30.35,12,2,12,0.00
2013-3-27,69,55,39,45,35,24,63,48,34,30.37,30.14,17,5,17,0.00
2013-3-28,70,61,48,58,52,42,86,72,63,30.26,30.12,14,5,14,0.00
2013-3-29,71,62,58,59,56,54,89,82,64,30.22,30.02,14,5,14,0.01
2013-3-30,77,67,54,64,60,52,94,80,64,30.08,29.91,15,3,15,0.45
2013-3-31,74,67,59,63,58,51,92,73,51,30.02,29.82,16,5,16,0.01
2013-4-1,78,65,49,57,51,46,91,64,38,30.10,29.96,12,2,12,0.04
2013-4-2,67,66,66,58,55,54,75,67,64,30.02,29.95,14,3,14,0.00
2013-4-3,49,46,43,47,44,41,93,92,89,30.21,29.96,12,6,12,1.61
2013-4-4,49,45,41,42,40,39,93,84,72,30.27,30.17,17,7,17,0.02
2013-4-5,68,54,39,50,44,36,92,72,50,30.30,30.07,9,3,9,0.00
2013-4-6,75,64,55,60,53,46,81,68,57,30.07,29.86,17,6,17,0.00
2013-4-7,73,66,60,63,60,55,89,79,69,29.94,29.77,17,7,17,0.00
2013-4-8,74,70,64,65,63,58,84,78,73,29.79,29.68,15,7,15,0.00
2013-4-9,83,74,67,68,65,63,89,75,57,29.73,29.63,20,8,20,0.00
2013-4-10,74,47,38,68,43,34,92,87,63,30.05,29.72,22,11,22,0.61
2013-4-11,63,49,39,42,35,29,80,61,39,30.04,29.86,14,5,14,0.00
2013-4-12,75,58,44,53,45,39,84,64,37,30.03,29.91,12,2,12,0.03
2013-4-13,77,64,53,54,49,45,78,60,42,30.03,29.81,14,4,14,0.00
2013-4-14,81,69,56,67,59,49,88,72,57,29.81,29.57,18,6,18,0.00
2013-4-15,86,76,68,70,67,64,91,75,56,29.77,29.62,16,7,16,0.05
2013-4-16,87,82,74,70,68,67,82,63,54,29.91,29.76,14,8,14,0.00
2013-4-17,85,77,71,70,69,67,92,77,60,29.89,29.66,21,9,21,0.02
2013-4-18,57,49,45,53,41,36,92,75,53,30.21,29.74,22,12,22,1.16
2013-4-19,64,50,37,40,33,26,84,57,29,30.34,30.19,20,6,20,0.00
2013-4-20,71,58,44,44,36,32,70,46,28,30.25,30.06,16,5,16,0.00
2013-4-21,70,59,46,53,47,38,84,65,50,30.25,30.11,12,4,12,0.01
2013-4-22,78,63,51,60,53,46,90,72,53,30.15,29.88,17,4,17,0.03
2013-4-23,67,54,41,62,49,37,92,83,74,30.24,29.82,17,9,17,0.01
2013-4-24,62,49,38,40,36,31,92,64,41,30.38,30.24,21,7,21,0.02
2013-4-25,72,62,51,49,43,35,61,50,38,30.38,30.18,13,4,13,0.00
2013-4-26,71,62,58,65,51,45,84,67,54,30.19,30.02,12,5,12,0.04
2013-4-27,74,68,58,65,60,53,92,76,58,30.14,30.01,13,4,13,0.02
2013-4-28,80,66,51,67,59,49,93,79,59,30.08,29.88,9,2,9,0.00
2013-4-29,84,73,62,67,62,58,93,69,47,29.93,29.80,13,3,13,0.02
2013-4-30,81,70,59,66,62,56,92,75,57,29.86,29.76,12,3,12,0.00
2013-5-1,80,69,63,67,64,60,93,85,61,29.93,29.80,9,3,9,0.02
2013-5-2,53,47,42,49,41,36,92,80,72,30.39,30.13,25,14,25,0.03
2013-5-3,66,52,39,38,34,30,79,54,29,30.37,30.08,21,9,21,0.00
2013-5-4,73,57,40,40,36,31,84,51,25,30.08,29.93,21,6,21,0.00
2013-5-5,69,57,45,49,43,38,81,61,47,30.20,30.05,16,5,16,0.00
2013-5-6,76,62,47,56,50,43,91,68,45,30.16,30.03,10,2,10,0.01
2013-5-7,84,71,54,60,55,50,90,61,38,30.10,29.95,10,2,10,0.00
2013-5-8,85,73,61,62,57,53,79,59,42,30.02,29.88,15,4,15,0.02
2013-5-9,73,68,64,66,63,58,93,85,61,30.03,29.86,13,3,13,0.34
2013-5-10,81,71,65,66,64,58,94,78,55,30.07,29.89,14,2,14,0.00
2013-5-11,80,71,62,59,54,48,81,57,33,30.19,30.04,17,4,17,0.00
2013-5-12,78,68,58,54,45,38,74,46,28,30.30,30.17,14,3,14,0.00
2013-5-13,86,72,56,58,50,41,65,47,31,30.27,30.13,12,3,12,0.01
2013-5-14,86,75,63,63,58,53,79,57,40,30.18,30.00,16,5,16,0.00
2013-5-15,74,71,68,69,66,62,93,86,72,30.06,29.80,16,6,16,0.27
2013-5-16,81,75,64,72,69,62,94,83,71,29.86,29.75,12,4,12,0.27
2013-5-17,89,80,72,76,72,69,94,78,61,29.86,29.78,12,4,12,0.00
2013-5-18,91,81,71,75,71,67,89,73,56,29.90,29.24,17,6,17,0.00
2013-5-19,89,77,70,73,68,65,88,75,57,29.85,29.73,18,8,18,0.00
2013-5-20,89,85,80,73,71,67,73,64,58,29.77,29.65,24,10,24,0.00
2013-5-21,82,72,61,72,66,57,93,83,66,29.90,29.66,20,7,20,0.65
2013-5-22,85,69,54,65,59,52,94,75,44,29.99,29.86,6,1,6,0.00
2013-5-23,84,76,68,74,70,63,94,80,66,30.07,29.89,13,3,13,0.00
2013-5-24,83,76,66,74,70,63,92,83,69,30.21,29.99,12,3,12,0.20
2013-5-25,82,71,66,73,67,64,94,89,70,30.17,30.05,17,3,17,0.16
2013-5-26,86,77,70,73,70,68,94,80,63,30.10,29.56,14,5,14,0.01
2013-5-27,85,77,71,71,69,67,89,76,61,30.00,29.80,14,5,14,0.02
2013-5-28,84,81,76,70,68,67,80,67,59,29.86,29.72,17,7,17,0.00
2013-5-29,83,75,69,73,70,65,93,83,71,29.83,29.71,18,8,18,0.61
2013-5-30,88,79,72,75,72,69,92,79,62,29.81,29.40,18,7,18,0.02
2013-5-31,89,81,75,75,73,71,90,78,61,29.84,29.25,13,6,13,0.02
2013-6-1,89,80,76,76,72,66,84,77,63,29.95,29.13,15,6,15,0.00
2013-6-2,84,76,68,68,59,53,77,58,35,30.09,29.66,12,5,12,0.00
2013-6-3,88,75,62,65,61,57,85,63,41,30.02,29.85,10,2,10,0.01
2013-6-4,91,80,70,72,68,63,85,68,49,29.99,29.34,13,5,13,0.00
2013-6-5,90,81,72,73,69,67,88,69,52,29.94,29.23,13,3,13,0.01
2013-6-6,79,73,69,70,67,64,94,82,70,29.97,29.81,17,3,17,0.54
2013-6-7,83,77,67,64,59,56,89,57,40,29.97,29.89,13,2,13,0.00
2013-6-8,87,75,60,67,62,57,91,66,46,29.96,29.80,10,3,10,0.01
2013-6-9,89,77,68,72,68,62,93,74,52,29.95,29.85,15,4,15,0.25
2013-6-10,96,82,68,73,68,63,91,65,34,29.98,29.83,10,2,10,0.02
2013-6-11,92,83,73,75,71,66,91,69,53,30.03,29.09,12,3,12,0.00
2013-6-12,93,83,74,75,72,70,90,70,49,30.07,29.35,12,3,12,0.01
2013-6-13,96,86,76,74,71,69,82,63,45,30.06,29.59,10,3,10,0.00
2013-6-14,95,85,74,74,71,67,81,64,46,30.00,29.46,7,1,7,0.00
2013-6-15,89,82,73,76,72,70,91,74,58,30.01,29.43,10,2,10,0.05
2013-6-16,94,84,74,76,71,69,90,67,46,30.02,29.39,10,2,10,0.00
2013-6-17,93,82,69,76,72,66,93,73,54,30.06,29.55,20,3,20,0.57
2013-6-18,85,76,69,75,70,67,93,83,60,30.02,29.43,12,3,12,0.68
2013-6-19,90,79,70,77,72,68,94,79,60,30.00,29.55,8,2,8,0.00
2013-6-20,93,84,74,75,71,68,89,68,47,30.05,29.36,12,3,12,0.00
2013-6-21,94,84,74,75,70,68,90,65,46,30.07,29.44,12,4,12,0.00
2013-6-22,94,84,73,74,70,67,87,65,46,30.05,29.34,15,5,15,0.02
2013-6-23,83,82,81,70,70,69,70,67,64,29.93,29.92,9,5,9,0.00
2013-6-24,94,88,76,74,71,69,88,58,45,30.03,29.40,15,6,15,0.02
2013-6-25,96,86,76,74,70,66,84,61,42,29.99,29.49,14,6,14,0.00
2013-6-26,96,86,76,77,72,67,87,63,47,29.96,29.51,16,5,16,0.01
2013-6-27,98,87,77,77,72,68,83,62,41,30.02,29.29,10,2,10,0.00
2013-6-28,102,88,77,74,69,65,73,53,35,29.95,29.45,13,3,13,0.01
2013-6-29,97,86,73,72,67,62,82,55,33,29.88,29.19,12,3,12,0.00
2013-6-30,90,82,71,66,62,57,81,52,37,29.94,29.40,13,4,13,0.00
2013-7-1,87,78,69,63,60,58,76,55,40,30.04,28.71,14,4,14,0.00
2013-7-2,88,78,65,60,57,53,79,51,32,30.10,28.71,13,3,13,0.00
2013-7-3,77,66,61,63,57,56,89,75,49,30.08,29.68,1,0,1,0.00
2013-7-4,94,81,68,66,61,56,79,54,29,30.02,29.04,13,2,13,0.00
2013-7-5,95,80,70,69,64,60,80,59,35,30.01,29.22,8,2,8,0.01
2013-7-6,94,88,76,70,66,62,77,48,38,29.95,29.50,10,4,10,0.00
2013-7-7,95,85,72,73,69,64,82,60,44,30.00,28.55,12,3,12,0.00
2013-7-8,95,84,76,76,72,66,86,67,46,30.09,28.68,12,3,12,0.01
2013-7-9,95,86,80,69,67,66,69,55,41,30.07,29.27,6,1,6,0.00
2013-7-10,100,89,79,74,70,67,81,57,36,30.06,28.14,12,3,12,0.02
2013-7-11,102,87,80,75,72,67,77,61,40,29.97,29.32,13,3,13,0.00
2013-7-12,99,86,74,76,71,68,89,65,41,29.98,29.34,9,2,9,0.01
2013-7-13,99,88,78,75,70,62,79,57,40,29.99,29.26,12,3,12,0.00
2013-7-14,81,72,68,70,65,60,93,80,53,30.03,29.21,7,1,7,0.37
2013-7-15,72,70,66,71,68,64,95,94,90,30.10,28.93,4,0,4,0.68
2013-7-16,88,75,70,75,71,68,95,88,61,30.22,28.31,21,2,21,0.80
2013-7-17,87,76,70,76,71,68,95,86,66,30.24,29.26,17,2,17,0.13
2013-7-18,90,80,70,77,72,68,95,77,54,30.20,28.75,12,1,12,0.00
2013-7-19,94,81,73,74,72,68,92,74,49,30.06,28.30,14,3,14,0.00
2013-7-20,94,81,73,76,71,68,91,75,50,29.99,29.36,10,2,10,0.01
2013-7-21,94,89,79,77,74,70,84,62,49,29.93,29.42,12,4,12,0.01
2013-7-22,95,86,76,77,74,72,90,70,48,29.97,29.06,10,4,10,0.02
2013-7-23,96,87,78,79,74,67,87,66,44,29.96,28.65,12,4,12,0.00
2013-7-24,87,81,76,75,71,68,85,73,58,29.99,28.70,12,3,12,0.03
2013-7-25,94,90,82,79,75,72,78,62,54,29.99,27.67,8,3,8,0.03
2013-7-26,94,82,76,77,73,71,90,75,51,30.01,28.34,15,3,15,0.25
2013-7-27,89,79,72,73,68,65,85,70,49,30.03,28.88,12,4,12,0.02
2013-7-28,92,80,66,73,69,64,93,71,50,29.98,27.97,8,2,8,0.00
2013-7-29,95,90,79,76,72,65,86,57,43,29.98,27.45,12,5,12,0.00
2013-7-30,97,87,77,76,71,65,83,61,46,30.08,26.50,12,4,12,0.00
2013-7-31,101,89,78,76,71,66,80,57,42,30.05,27.98,13,3,13,0.02
2013-8-1,101,87,78,77,72,70,81,62,43,29.99,28.76,9,1,9,0.00
2013-8-2,100,90,79,74,71,68,79,57,38,29.93,28.43,9,3,9,0.01
2013-8-3,97,97,97,70,70,69,42,41,41,29.79,29.23,6,2,6,0.01
2013-8-5,100,97,88,72,69,65,47,41,36,29.92,28.82,9,3,9,0.01
2013-8-6,102,94,78,74,70,65,77,47,35,29.90,27.79,12,4,12,0.01
2013-8-7,102,94,78,74,71,67,82,49,36,29.89,27.06,12,4,12,0.03
2013-8-8,100,90,78,74,70,64,82,55,38,29.87,27.39,10,3,10,0.00
2013-8-9,101,88,79,75,69,62,80,55,30,29.92,26.74,10,3,10,0.01
2013-8-10,95,91,88,71,70,69,55,50,46,30.01,27.43,4,2,4,0.01
2013-8-11,99,91,80,77,72,69,78,55,42,29.95,25.59,16,3,16,0.01
2013-8-12,87,80,76,74,71,68,85,75,54,30.05,27.39,10,1,10,0.01
2013-8-13,95,84,77,82,72,67,91,70,49,29.96,26.51,20,3,20,0.42
2013-9-12,94,89,80,73,70,68,72,54,45,29.95,27.65,7,2,7,0.42
2013-9-13,94,84,74,74,70,67,85,64,43,29.95,27.35,12,2,12,0.01
2013-9-14,92,83,74,70,66,63,71,58,45,29.95,27.54,13,3,13,0.00
2013-9-15,93,83,72,73,67,62,71,59,46,30.02,27.77,9,2,9,0.00
2013-9-16,93,84,73,73,68,65,87,61,42,30.08,26.88,9,2,9,0.01
2013-9-17,92,84,77,71,68,66,74,60,46,30.08,27.63,9,1,9,0.00
2013-9-18,95,85,77,73,68,65,82,58,39,30.02,28.91,10,3,10,0.01
2013-9-19,89,82,73,73,70,67,93,68,57,30.00,27.33,7,2,7,0.32
2013-9-20,73,72,70,72,70,66,95,93,88,29.94,27.95,14,4,14,1.07
2013-9-21,81,71,60,66,55,46,88,62,31,30.00,25.01,14,4,14,0.00
2013-9-22,81,67,54,62,55,51,94,69,40,29.71,25.23,10,2,10,0.02
2013-9-23,84,67,55,61,56,51,91,71,39,29.77,26.51,13,2,13,0.03
2013-9-24,90,83,67,66,59,55,72,46,31,29.67,26.28,12,3,12,0.03
2013-9-25,91,75,58,63,56,53,90,58,29,29.78,23.73,7,1,7,0.01
2013-9-27,87,83,76,74,72,70,83,69,62,29.64,24.45,13,6,13,0.01
2013-9-28,86,76,67,76,72,64,93,85,71,29.66,24.94,16,5,16,0.79
2013-9-29,78,75,64,62,58,52,84,58,41,29.03,24.97,12,5,12,0.79
2013-9-30,84,77,57,64,60,54,91,58,38,29.62,25.58,9,2,9,0.79
2013-10-1,70,69,64,63,62,60,88,81,78,29.60,26.65,0,0,0,0.00
2013-10-2,87,82,74,73,71,69,89,71,60,29.62,25.17,12,5,12,0.00
2013-10-3,89,80,73,75,71,69,91,77,56,29.63,24.02,13,5,13,0.00
2013-10-4,87,79,72,72,70,68,92,75,57,29.63,24.63,13,5,13,0.02
2013-10-5,78,64,51,70,58,44,93,81,60,29.60,25.23,17,6,17,0.32
2013-10-6,73,60,49,51,45,36,93,64,27,30.03,28.05,14,5,14,0.01
2013-10-7,78,62,47,51,46,41,92,62,27,30.05,26.98,10,2,10,0.00
2013-10-8,79,63,47,53,49,44,91,64,34,30.02,27.25,7,2,7,0.00
2013-10-9,81,67,53,61,55,50,90,67,42,29.85,25.60,12,2,12,0.00
2013-10-10,74,68,57,64,60,54,91,77,72,28.83,26.52,7,2,7,0.00
2013-10-11,84,78,74,72,68,64,82,70,64,27.89,23.71,10,2,10,0.00
2013-10-12,87,77,69,76,71,66,93,82,62,28.83,23.70,13,3,13,0.00
2013-10-13,74,70,67,69,67,64,93,88,84,29.85,24.63,7,2,7,0.00
2013-10-14,72,70,68,71,68,66,95,94,89,29.69,24.07,14,4,14,1.05
2013-10-15,76,70,60,73,67,58,94,92,87,29.76,25.48,12,4,12,0.24
2013-10-19,61,52,45,45,42,40,84,72,48,29.99,29.14,2,0,0,0.24
2013-10-20,70,53,39,48,43,36,92,72,40,30.01,28.23,14,3,14,0.00
2013-10-21,72,60,52,63,53,48,91,80,67,30.01,28.35,13,3,13,0.02
2013-10-22,72,58,43,50,46,41,91,66,38,30.10,29.16,12,3,12,0.00
2013-10-23,80,70,51,55,52,45,83,54,38,30.01,29.19,7,2,7,0.00
2013-10-24,77,68,60,55,50,46,62,54,41,30.07,28.41,9,2,9,0.00
2013-10-25,67,59,51,52,48,44,86,68,55,30.30,28.44,12,3,12,0.02
2013-10-26,75,64,56,64,56,49,95,76,67,30.08,27.73,12,3,12,1.27
2013-10-27,67,62,58,60,58,57,94,87,74,29.87,28.47,5,1,5,1.27
2013-10-28,75,68,60,67,64,58,95,87,76,30.02,27.78,9,3,9,1.29
2013-10-29,75,71,68,70,67,66,92,89,83,29.13,26.32,10,4,10,0.00
2013-10-30,71,68,65,68,66,63,95,93,90,28.79,25.76,12,4,12,0.06
2013-10-31,74,64,52,59,49,44,85,62,38,28.68,26.89,17,6,17,0.06
2013-11-1,74,63,46,54,49,43,92,64,45,29.81,27.07,10,2,10,0.00
2013-11-2,63,56,47,45,41,38,81,58,39,30.22,29.26,12,4,12,0.00
2013-11-3,65,52,39,44,41,36,91,68,45,30.15,29.46,10,3,10,0.00
2013-11-4,59,54,51,58,50,48,95,87,77,30.00,29.45,6,4,6,0.57
2013-11-5,69,66,59,67,64,58,95,94,94,30.00,28.57,9,4,9,0.63
2013-11-6,70,53,46,68,49,39,92,87,78,30.31,29.02,14,6,14,0.69
2013-11-7,60,50,36,45,41,34,93,73,47,30.45,29.65,6,1,6,0.00
2013-11-8,64,54,39,46,42,36,91,67,47,30.34,29.55,8,3,8,0.00
2013-11-9,67,62,57,55,52,50,78,70,62,30.14,28.74,9,4,9,0.00
2013-11-10,62,56,54,53,49,47,81,77,60,30.22,29.87,4,1,4,0.00
2013-11-11,62,57,51,56,53,50,94,87,82,30.23,30.07,1,0,1,0.00
2013-11-12,54,44,36,50,30,21,86,59,40,30.49,28.90,16,7,16,0.01
2013-11-13,49,41,27,28,26,21,84,57,41,30.64,28.20,5,1,5,0.01
2013-11-15,62,62,62,58,58,57,87,87,86,28.01,27.06,5,4,5,0.01
2013-11-16,64,64,62,61,61,58,89,89,87,29.13,28.75,9,5,9,0.01